Regional Weather Roundup
Issued by NWS Cleveland, OH

Home | Current Version | Previous Version | Graphics & Text | Print | Product List | Glossary On
Versions: 1 2 3 4 5 6 7 8 9 10 11 12 13 14 15 16 17 18 19 20 21 22 23 24 25 26 27 28 29 30 31 32 33 34 35 36 37 38 39 40 41 42 43 44 45 46 47 48 49 50
000
ASUS41 KCLE 301510
RWRCLE
OHIO REGIONAL WEATHER ROUNDUP
NATIONAL WEATHER SERVICE WILMINGTON, OH
1100 AM EDT FRI SEP 30 2016

NOTE: "FAIR" INDICATES FEW OR NO CLOUDS BELOW 12,000 FEET WITH NO
SIGNIFICANT WEATHER AND/OR OBSTRUCTIONS TO VISIBILITY.

OHZ001>008-015>018-024>027-034-035-043-044-301600-
   NORTHWEST OHIO

CITY           SKY/WX    TMP DP  RH WIND       PRES   REMARKS
DEFIANCE       CLOUDY    64  58  80 NE9       30.11S
FINDLAY        CLOUDY    64  58  80 NE13      30.08F
TOLEDO EXPRESS CLOUDY    63  60  90 E9        30.12S
TOLEDO EXEC    CLOUDY    65  60  84 E9        30.14R
LIMA           LGT RAIN  61  61 100 E8        30.07S
$$

OHZ009>014-019>023-028>033-038-089-301600-
   NORTHEAST OHIO

CITY           SKY/WX    TMP DP  RH WIND       PRES   REMARKS
CLE-HOPKINS    LGT RAIN  63  56  78 SE10      30.15R
CLE-LAKEFRONT    N/A     65  56  72 E7        30.12R
CUY CO. ARPT   PTSUNNY   64  59  82 E13G22    30.12S
LORAIN-ELYRIA  NOT AVBL
ASHTABULA      CLOUDY    59  57  93 E15       30.19F
AKRON-CANTON   CLOUDY    59  55  87 E15       30.12S
WOOSTER        CLOUDY    60  56  86 E9        30.12S
MANSFIELD      CLOUDY    60  57  89 E15G22    30.10S
YOUNGSTOWN     CLOUDY    58  55  90 E16G24    30.16F
$$

OHZ042-051>053-060>062-070>072-077>081-301600-
  SOUTHWEST OHIO

CITY           SKY/WX    TMP DP  RH WIND       PRES   REMARKS
CINC-COVINGTON CLOUDY    61  57  87 E3        30.04R
CINC-LUNKEN    CLOUDY    61  60  97 CALM      30.04F
HAMILTON       LGT RAIN  60  57  89 CALM      30.06R
DAYTON         CLOUDY    62  60  93 E9        30.05R
WRIGHT-PAT AFB LGT RAIN  61  61 100 E7        30.03S
DAYTON GENERAL CLOUDY    59  57  93 S5        30.03S
WILMINGTON     CLOUDY    58  58 100 W3        30.03S FOG
$$

OHZ036-037-039>041-045>050-054>059-063>069-073>076-082>088-301600-
  CENTRAL AND SOUTHEAST OHIO

CITY           SKY/WX    TMP DP  RH WIND       PRES   REMARKS
COLUMBUS       CLOUDY    62  61  96 S5        30.06R THUNDER
OSU AIRPORT    TSTM      61  60  97 SE7       30.07R FOG
BOLTON FIELD   TSTM      61  59  94 E10       30.05S
RICKENBACK AFB   N/A     59  59 100 E8        30.03F THUNDER
NEWARK         CLOUDY    64  57  78 E9G16     30.04F
MARION         CLOUDY    62  56  80 E9        30.08F
LANCASTER      CLOUDY    63  60  90 NE3       30.04F
ZANESVILLE     FAIR      62  57  83 E8        30.06S
NEW PHILLY     PTSUNNY   62  57  83 E9        30.10F
$$



USA.gov is the U.S. government's official web portal to all federal, state and local government web resources and services.